• MPC Preparation (Info)

  • MPEC 2016-O239: 2014 WF510

    The following Minor Planet Electronic Circular may be linked-to from your own Web pages, but must not otherwise be redistributed electronically.

    A form allowing access to any MPEC is at the bottom of this page.


    Read MPEC 2016-O238 Read MPEC 2016-O240


    M.P.E.C. 2016-O239                               Issued 2016 July 17, 19:00 UT
    
         The Minor Planet Electronic Circulars contain information on unusual
             minor planets and routine data on comets.  They are published
        on behalf of Division F of the International Astronomical Union by the
              Minor Planet Center, Smithsonian Astrophysical Observatory,
                              Cambridge, MA 02138, U.S.A.
    
                 Prepared using the Tamkin Foundation Computer Network
    
                                  MPC@CFA.HARVARD.EDU
                URL https://www.minorplanetcenter.net/    ISSN 1523-6714
    
                                      2014 WF510
    
    Observations:
         K14Wp0F  C2011 09 24.48955 03 13 22.482+03 59 24.50         21.9 wLEO239F51
         K14Wp0F  C2011 09 24.50410 03 13 22.429+03 59 23.87         21.9 wLEO239F51
         K14Wp0F  C2011 09 24.51865 03 13 22.379+03 59 23.27         21.9 wLEO239F51
         K14Wp0F  C2011 09 24.53323 03 13 22.324+03 59 22.73         21.8 wLEO239F51
         K14Wp0F  C2011 11 22.38414 03 08 06.628+03 20 25.29         21.7 wLEO239F51
         K14Wp0F  C2011 11 22.42102 03 08 06.403+03 20 24.38         21.8 wLEO239F51
         K14Wp0F  C2011 11 22.43543 03 08 06.302+03 20 23.95         21.8 wLEO239F51
         K14Wp0F  C2011 11 22.44985 03 08 06.235+03 20 23.54         21.5 wLEO239F51
         K14Wp0F  C2013 11 04.43625 03 28 56.995+02 56 41.86         21.8 wLEO239F51
         K14Wp0F  C2013 11 04.44979 03 28 56.924+02 56 41.45         21.7 wLEO239F51
         K14Wp0F  C2013 11 04.46337 03 28 56.834+02 56 41.18         21.8 wLEO239F51
         K14Wp0F  C2013 11 04.47698 03 28 56.756+02 56 40.43         21.7 wLEO239F51
         K14Wp0F* C2014 11 22.42881 03 36 34.590+02 30 04.43         21.9 wLEO239F51
         K14Wp0F  C2014 11 22.44362 03 36 34.510+02 30 04.10         21.8 wLEO239F51
         K14Wp0F  C2014 11 22.45843 03 36 34.418+02 30 03.56         21.8 wLEO239F51
         K14Wp0F  C2014 11 22.47324 03 36 34.314+02 30 03.16         21.8 wLEO239F51
         K14Wp0F  C2014 11 24.35741 03 36 22.678+02 29 13.60         21.7 wLEO239F51
         K14Wp0F  C2014 11 24.37244 03 36 22.584+02 29 13.23         22.0 wLEO239F51
         K14Wp0F  C2014 11 24.38757 03 36 22.474+02 29 12.80         21.8 wLEO239F51
         K14Wp0F  C2014 11 24.40285 03 36 22.393+02 29 12.43         22.0 wLEO239F51
         K14Wp0F  C2014 11 30.32656 03 35 46.187+02 26 51.71         21.4 iLEO239F51
         K14Wp0F  C2014 11 30.33870 03 35 46.114+02 26 51.56         21.4 iLEO239F51
         K14Wp0F  C2014 11 30.35082 03 35 46.038+02 26 50.54         21.6 iLEO239F51
         K14Wp0F  C2014 12 10.38754 03 34 47.304+02 23 49.25         21.2 iLEO239F51
         K14Wp0F  C2014 12 10.39899 03 34 47.235+02 23 49.14         21.3 iLEO239F51
         K14Wp0F  C2014 12 10.41041 03 34 47.180+02 23 48.84         21.5 iLEO239F51
         K14Wp0F  C2014 12 10.42183 03 34 47.123+02 23 48.74         21.6 iLEO239F51
         K14Wp0F  C2014 12 18.35701 03 34 04.365+02 22 17.36         22.0 wLEO239F51
         K14Wp0F  C2014 12 18.36991 03 34 04.311+02 22 17.08         21.9 wLEO239F51
         K14Wp0F  C2014 12 18.38281 03 34 04.233+02 22 17.17         22.0 wLEO239F51
         K14Wp0F  C2014 12 18.39578 03 34 04.167+02 22 17.14         22.1 wLEO239F51
         K14Wp0F  C2015 01 08.27414 03 32 35.851+02 22 07.40         21.2 iLEO239F51
         K14Wp0F  C2015 01 08.28732 03 32 35.804+02 22 07.59         21.3 iLEO239F51
         K14Wp0F  C2015 01 08.30052 03 32 35.776+02 22 07.66         21.3 iLEO239F51
         K14Wp0F  C2015 01 08.31374 03 32 35.713+02 22 07.63         21.1 iLEO239F51
         K14Wp0F  C2015 01 13.29284 03 32 21.129+02 22 53.68         21.9 wLEO239F51
         K14Wp0F  C2015 01 13.30508 03 32 21.087+02 22 53.68         21.8 wLEO239F51
         K14Wp0F  C2015 01 13.31729 03 32 21.057+02 22 53.83         21.8 wLEO239F51
         K14Wp0F  C2015 01 13.32960 03 32 21.022+02 22 53.88         21.7 wLEO239F51
    
    Observer details:
    F51 Pan-STARRS 1, Haleakala.  Observers B. Gibson, T. Goggia, N. Primak,
        A. Schultz, M. Willman.  Measurers K. Chambers, S. Chastel, Y.-T. Chen,
        L. Denneau, H. Flewelling, M. Holman, M. Huber, R. Jedicke, M. Lackner,
        E. Lilly, H.-W. Lin, E. Magnier, M. Micheli, M. Payne, P. Veres,
        R. Wainscoat, C. Waters, R. Weryk.  1.8-m Ritchey-Chretien + CCD.
    
    Orbital elements:
    2014 WF510
    Epoch 2016 July 31.0 TT = JDT 2457600.5                 MPC
    M  15.56262              (2000.0)            P               Q
    n   0.00399589     Peri.  197.52124     +0.83107452     -0.54073710
    a  39.3303090      Node   197.19365     +0.54827599     +0.83581267
    e   0.2215180      Incl.   26.10523     +0.09331972     -0.09497663
    P 247              H    6.7           G   0.15           U   2
    Residuals in seconds of arc
    110924 F51  0.0   0.0     141122 F51  0.1+  0.1+    141210 F51  0.2+  0.2+
    110924 F51  0.0   0.0     141122 F51  0.1+  0.1-    141218 F51  0.2-  0.0
    110924 F51  0.0   0.0     141122 F51  0.1-  0.1-    141218 F51  0.0   0.1-
    110924 F51  0.0   0.1+    141124 F51  0.0   0.0     141218 F51  0.1-  0.1+
    111122 F51  0.0   0.1-    141124 F51  0.0   0.0     141218 F51  0.1-  0.1+
    111122 F51  0.0   0.0     141124 F51  0.2-  0.0     150108 F51  0.0   0.0
    111122 F51  0.2-  0.0     141124 F51  0.0   0.0     150108 F51  0.1-  0.1+
    111122 F51  0.2+  0.0     141130 F51  0.1+  0.0     150108 F51  0.2+  0.1+
    131104 F51  0.1-  0.2-    141130 F51  0.1+  0.1+    150108 F51  0.1-  0.0
    131104 F51  0.0   0.1-    141130 F51  0.1+  0.7-    150113 F51  0.1+  0.1+
    131104 F51  0.1-  0.2+    141210 F51  0.1-  0.2+    150113 F51  0.0   0.1-
    131104 F51  0.0   0.1-    141210 F51  0.1-  0.2+    150113 F51  0.0   0.1-
    141122 F51  0.1-  0.0     141210 F51  0.1+  0.1+    150113 F51  0.0   0.1-
    
    Ephemeris:
    2014 WF510               a,e,i = 39.33, 0.22, 26                 q = 30.618
    Date    TT    R. A. (2000) Decl.     Delta      r     Elong.  Phase     V
    2016 06 17    03 54 21.4 +03 15 56  31.9727 31.1256    33.0     1.0    21.8
    ...
    2016 07 02    03 56 13.7 +03 15 32  31.8360 31.1295    45.3     1.3    21.9
    ...
    2016 07 10    03 57 07.4 +03 14 19  31.7447 31.1315    52.2     1.5    21.9
    ...
    2016 07 16    03 57 44.1 +03 12 57  31.6691 31.1331    57.4     1.6    21.9
    2016 07 17    03 57 50.0 +03 12 41  31.6560 31.1333    58.3     1.6    21.9
    2016 07 18    03 57 55.7 +03 12 24  31.6427 31.1336    59.1     1.6    21.9
    ...
    2016 07 24    03 58 28.0 +03 10 31  31.5601 31.1352    64.4     1.7    21.9
    ...
    2016 08 01    03 59 05.4 +03 07 27  31.4435 31.1373    71.6     1.8    21.9
    ...
    2016 08 16    03 59 56.3 +03 00 03  31.2114 31.1412    85.1     1.9    21.9
    
    A. U. Tomatic                (C) Copyright 2016 MPC           M.P.E.C. 2016-O239
    

    Read MPEC 2016-O238 Read MPEC 2016-O240


    MPEC number:

    Enter an MPEC number in one of the following forms:

    • 1997-B01 (the full form)
    • J97B01 (the packed version of the full form)
    • B01 (the abbreviated form)